Time,TemperatureF,DewpointF,PressureIn,WindDirection,WindDirectionDegrees,WindSpeedMPH,WindSpeedGustMPH,Humidity,HourlyPrecipIn,Conditions,Clouds,dailyrainin,SoftwareType,DateUTC
2013-08-30 00:11:00,57.0,50.0,-100.00,North,-999,0.0,0.0,77,-99.99,,,-99.99,,2013-08-30 07:11:00,
2013-08-30 00:43:00,56.0,50.0,-100.00,North,-999,0.0,0.0,79,-99.99,,,-99.99,,2013-08-30 07:43:00,
2013-08-30 00:53:00,56.0,50.0,-100.00,North,-999,0.0,0.0,79,-99.99,,,-99.99,,2013-08-30 07:53:00,
2013-08-30 01:11:00,57.0,50.0,-100.00,North,-999,0.0,0.0,78,-99.99,,,-99.99,,2013-08-30 08:11:00,
2013-08-30 01:22:00,57.0,50.0,-100.00,North,-999,0.0,0.0,78,-99.99,,,-99.99,,2013-08-30 08:22:00,
2013-08-30 01:42:00,56.0,50.0,-100.00,North,-999,0.0,0.0,80,-99.99,,,-99.99,,2013-08-30 08:42:00,
2013-08-30 01:52:00,56.0,50.0,-100.00,North,-999,0.0,0.0,81,-99.99,,,-99.99,,2013-08-30 08:52:00,
2013-08-30 02:12:00,54.0,50.0,-100.00,North,-999,0.0,0.0,85,-99.99,,,-99.99,,2013-08-30 09:12:00,
2013-08-30 02:22:00,54.0,50.0,-100.00,North,-999,0.0,0.0,85,-99.99,,,-99.99,,2013-08-30 09:22:00,
2013-08-30 02:44:00,54.0,50.0,-100.00,North,-999,0.0,0.0,87,-99.99,,,-99.99,,2013-08-30 09:44:00,
2013-08-30 02:53:00,54.0,50.0,-100.00,North,-999,0.0,0.0,87,-99.99,,,-99.99,,2013-08-30 09:53:00,
2013-08-30 03:12:00,53.0,49.0,-100.00,North,-999,0.0,0.0,88,-99.99,,,-99.99,,2013-08-30 10:12:00,
2013-08-30 03:23:00,53.0,49.0,-100.00,North,-999,0.0,0.0,88,-99.99,,,-99.99,,2013-08-30 10:23:00,
2013-08-30 03:43:00,51.0,49.0,-100.00,North,-999,0.0,0.0,90,-99.99,,,-99.99,,2013-08-30 10:43:00,
2013-08-30 03:53:00,51.0,49.0,-100.00,North,-999,0.0,0.0,90,-99.99,,,-99.99,,2013-08-30 10:53:00,
2013-08-30 04:12:00,51.0,48.0,-100.00,North,-999,0.0,0.0,91,-99.99,,,-99.99,,2013-08-30 11:12:00,
2013-08-30 04:22:00,50.0,48.0,-100.00,North,-999,0.0,0.0,91,-99.99,,,-99.99,,2013-08-30 11:22:00,
2013-08-30 04:42:00,50.0,48.0,-100.00,North,-999,0.0,0.0,92,-99.99,,,-99.99,,2013-08-30 11:42:00,
2013-08-30 04:52:00,50.0,48.0,-100.00,North,-999,0.0,0.0,92,-99.99,,,-99.99,,2013-08-30 11:52:00,
2013-08-30 05:12:00,50.0,48.0,-100.00,North,-999,0.0,0.0,92,-99.99,,,-99.99,,2013-08-30 12:12:00,
2013-08-30 05:21:00,51.0,49.0,-100.00,North,-999,0.0,0.0,92,-99.99,,,-99.99,,2013-08-30 12:21:00,
2013-08-30 05:42:00,52.0,50.0,-100.00,North,-999,0.0,0.0,92,-99.99,,,-99.99,,2013-08-30 12:42:00,
2013-08-30 05:52:00,52.0,49.0,-100.00,North,-999,0.0,0.0,91,-99.99,,,-99.99,,2013-08-30 12:52:00,
2013-08-30 06:11:00,51.0,48.0,-100.00,North,-999,0.0,0.0,91,-99.99,,,-99.99,,2013-08-30 13:11:00,
2013-08-30 06:21:00,51.0,48.0,-100.00,North,-999,0.0,0.0,91,-99.99,,,-99.99,,2013-08-30 13:21:00,
2013-08-30 06:42:00,50.0,48.0,-100.00,North,-999,0.0,0.0,91,-99.99,,,-99.99,,2013-08-30 13:42:00,
2013-08-30 06:52:00,50.0,48.0,-100.00,North,-999,0.0,0.0,91,-99.99,,,-99.99,,2013-08-30 13:52:00,
2013-08-30 07:11:00,50.0,48.0,-100.00,North,-999,0.0,0.0,92,-99.99,,,-99.99,,2013-08-30 14:11:00,
2013-08-30 07:21:00,50.0,48.0,-100.00,North,-999,0.0,0.0,92,-99.99,,,-99.99,,2013-08-30 14:21:00,
2013-08-30 07:42:00,50.0,48.0,-100.00,North,-999,0.0,0.0,92,-99.99,,,-99.99,,2013-08-30 14:42:00,
2013-08-30 07:52:00,50.0,48.0,-100.00,North,-999,0.0,0.0,92,-99.99,,,-99.99,,2013-08-30 14:52:00,
2013-08-30 09:13:00,58.0,47.0,-100.00,North,-999,0.0,0.0,67,-99.99,,,-99.99,,2013-08-30 16:13:00,
2013-08-30 09:24:00,59.0,47.0,-100.00,North,-999,0.0,0.0,64,-99.99,,,-99.99,,2013-08-30 16:24:00,
2013-08-30 09:43:00,60.0,46.0,-100.00,North,-999,0.0,0.0,60,-99.99,,,-99.99,,2013-08-30 16:43:00,
2013-08-30 09:53:00,62.0,46.0,-100.00,North,-999,0.0,0.0,55,-99.99,,,-99.99,,2013-08-30 16:53:00,
2013-08-30 10:13:00,62.0,46.0,-100.00,North,-999,0.0,0.0,54,-99.99,,,-99.99,,2013-08-30 17:13:00,
2013-08-30 10:23:00,64.0,45.0,-100.00,North,-999,0.0,0.0,51,-99.99,,,-99.99,,2013-08-30 17:23:00,
2013-08-30 10:42:00,63.0,46.0,-100.00,North,-999,0.0,0.0,53,-99.99,,,-99.99,,2013-08-30 17:42:00,
2013-08-30 10:53:00,66.0,45.0,-100.00,North,-999,0.0,0.0,47,-99.99,,,-99.99,,2013-08-30 17:53:00,
2013-08-30 11:12:00,68.0,44.0,-100.00,North,-999,0.0,0.0,43,-99.99,,,-99.99,,2013-08-30 18:12:00,
2013-08-30 11:21:00,70.0,45.0,-100.00,North,-999,0.0,0.0,41,-99.99,,,-99.99,,2013-08-30 18:21:00,
2013-08-30 11:42:00,71.0,45.0,-100.00,North,-999,0.0,0.0,40,-99.99,,,-99.99,,2013-08-30 18:42:00,
2013-08-30 11:52:00,71.0,45.0,-100.00,North,-999,0.0,0.0,39,-99.99,,,-99.99,,2013-08-30 18:52:00,
2013-08-30 12:12:00,70.0,44.0,-100.00,North,-999,0.0,0.0,38,-99.99,,,-99.99,,2013-08-30 19:12:00,
2013-08-30 12:21:00,70.0,44.0,-100.00,North,-999,0.0,0.0,38,-99.99,,,-99.99,,2013-08-30 19:21:00,
2013-08-30 12:53:00,74.0,43.0,-100.00,North,-999,0.0,0.0,33,-99.99,,,-99.99,,2013-08-30 19:53:00,
2013-08-30 13:11:00,75.0,43.0,-100.00,North,-999,0.0,0.0,32,-99.99,,,-99.99,,2013-08-30 20:11:00,
2013-08-30 13:22:00,78.0,42.0,-100.00,North,-999,0.0,0.0,28,-99.99,,,-99.99,,2013-08-30 20:22:00,
2013-08-30 13:43:00,79.0,42.0,-100.00,North,-999,0.0,0.0,27,-99.99,,,-99.99,,2013-08-30 20:43:00,
2013-08-30 13:52:00,79.0,42.0,-100.00,North,-999,0.0,0.0,27,-99.99,,,-99.99,,2013-08-30 20:52:00,
2013-08-30 14:11:00,80.0,42.0,-100.00,North,-999,0.0,0.0,26,-99.99,,,-99.99,,2013-08-30 21:11:00,
2013-08-30 14:21:00,80.0,42.0,-100.00,North,-999,0.0,0.0,26,-99.99,,,-99.99,,2013-08-30 21:21:00,
2013-08-30 14:44:00,79.0,41.0,-100.00,North,-999,0.0,0.0,26,-99.99,,,-99.99,,2013-08-30 21:44:00,
2013-08-30 14:55:00,81.0,41.0,-100.00,North,-999,0.0,0.0,25,-99.99,,,-99.99,,2013-08-30 21:55:00,
2013-08-30 15:13:00,81.0,42.0,-100.00,North,-999,0.0,0.0,25,-99.99,,,-99.99,,2013-08-30 22:13:00,
2013-08-30 15:43:00,82.0,41.0,-100.00,North,-999,0.0,0.0,24,-99.99,,,-99.99,,2013-08-30 22:43:00,
2013-08-30 15:54:00,82.0,41.0,-100.00,North,-999,0.0,0.0,24,-99.99,,,-99.99,,2013-08-30 22:54:00,
2013-08-30 16:12:00,81.0,41.0,-100.00,North,-999,0.0,0.0,24,-99.99,,,-99.99,,2013-08-30 23:12:00,
2013-08-30 16:22:00,82.0,40.0,-100.00,North,-999,0.0,0.0,23,-99.99,,,-99.99,,2013-08-30 23:22:00,
2013-08-30 16:42:00,82.0,40.0,-100.00,North,-999,0.0,0.0,23,-99.99,,,-99.99,,2013-08-30 23:42:00,
2013-08-30 16:53:00,81.0,40.0,-100.00,North,-999,0.0,0.0,23,-99.99,,,-99.99,,2013-08-30 23:53:00,
2013-08-30 17:11:00,81.0,40.0,-100.00,North,-999,0.0,0.0,23,-99.99,,,-99.99,,2013-08-31 00:11:00,
2013-08-30 17:21:00,80.0,39.0,-100.00,North,-999,0.0,0.0,23,-99.99,,,-99.99,,2013-08-31 00:21:00,
2013-08-30 17:42:00,79.0,38.0,-100.00,North,-999,0.0,0.0,23,-99.99,,,-99.99,,2013-08-31 00:42:00,
2013-08-30 17:52:00,79.0,38.0,-100.00,North,-999,0.0,0.0,23,-99.99,,,-99.99,,2013-08-31 00:52:00,
2013-08-30 18:11:00,78.0,40.0,-100.00,North,-999,0.0,0.0,25,-99.99,,,-99.99,,2013-08-31 01:11:00,
2013-08-30 18:21:00,77.0,40.0,-100.00,North,-999,0.0,0.0,27,-99.99,,,-99.99,,2013-08-31 01:21:00,
2013-08-30 18:42:00,76.0,40.0,-100.00,North,-999,0.0,0.0,28,-99.99,,,-99.99,,2013-08-31 01:42:00,
2013-08-30 18:52:00,75.0,41.0,-100.00,North,-999,0.0,0.0,29,-99.99,,,-99.99,,2013-08-31 01:52:00,
2013-08-30 19:11:00,73.0,40.0,-100.00,North,-999,0.0,0.0,30,-99.99,,,-99.99,,2013-08-31 02:11:00,
2013-08-30 19:22:00,73.0,40.0,-100.00,North,-999,0.0,0.0,30,-99.99,,,-99.99,,2013-08-31 02:22:00,
2013-08-30 19:42:00,71.0,41.0,-100.00,North,-999,0.0,0.0,33,-99.99,,,-99.99,,2013-08-31 02:42:00,
2013-08-30 19:52:00,71.0,41.0,-100.00,North,-999,0.0,0.0,33,-99.99,,,-99.99,,2013-08-31 02:52:00,
2013-08-30 20:12:00,69.0,41.0,-100.00,North,-999,0.0,0.0,35,-99.99,,,-99.99,,2013-08-31 03:12:00,
2013-08-30 20:22:00,69.0,41.0,-100.00,North,-999,0.0,0.0,35,-99.99,,,-99.99,,2013-08-31 03:22:00,
2013-08-30 20:44:00,68.0,44.0,-100.00,North,-999,0.0,0.0,42,-99.99,,,-99.99,,2013-08-31 03:44:00,
2013-08-30 20:54:00,68.0,44.0,-100.00,North,-999,0.0,0.0,42,-99.99,,,-99.99,,2013-08-31 03:54:00,
2013-08-30 21:13:00,67.0,46.0,-100.00,North,-999,0.0,0.0,48,-99.99,,,-99.99,,2013-08-31 04:13:00,
2013-08-30 21:24:00,66.0,47.0,-100.00,North,-999,0.0,0.0,50,-99.99,,,-99.99,,2013-08-31 04:24:00,
2013-08-30 21:44:00,65.0,47.0,-100.00,North,-999,0.0,0.0,53,-99.99,,,-99.99,,2013-08-31 04:44:00,
2013-08-30 21:54:00,64.0,48.0,-100.00,North,-999,0.0,0.0,56,-99.99,,,-99.99,,2013-08-31 04:54:00,
2013-08-30 22:13:00,64.0,48.0,-100.00,North,-999,0.0,0.0,56,-99.99,,,-99.99,,2013-08-31 05:13:00,
2013-08-30 22:23:00,62.0,47.0,-100.00,North,-999,0.0,0.0,57,-99.99,,,-99.99,,2013-08-31 05:23:00,
2013-08-30 22:43:00,61.0,46.0,-100.00,North,-999,0.0,0.0,58,-99.99,,,-99.99,,2013-08-31 05:43:00,
2013-08-30 22:52:00,61.0,46.0,-100.00,North,-999,0.0,0.0,58,-99.99,,,-99.99,,2013-08-31 05:52:00,
2013-08-30 23:12:00,59.0,46.0,-100.00,North,-999,0.0,0.0,61,-99.99,,,-99.99,,2013-08-31 06:12:00,
2013-08-30 23:22:00,59.0,46.0,-100.00,North,-999,0.0,0.0,61,-99.99,,,-99.99,,2013-08-31 06:22:00,
2013-08-30 23:42:00,58.0,47.0,-100.00,North,-999,0.0,0.0,67,-99.99,,,-99.99,,2013-08-31 06:42:00,
2013-08-30 23:52:00,58.0,47.0,-100.00,North,-999,0.0,0.0,67,-99.99,,,-99.99,,2013-08-31 06:52:00,